Volver al catálogo

COSMOS 970 DEB

ActivoLEO
NORAD 13505·DEBRIS·🇷🇺 Russia

Lanzado Dec 21, 1977 desde Baikonur Cosmodrome

Loading…

Próximos Pases (próximas 24 horas)

TLE

ActualizadoSource: Space-Track

Época: Sep 14, 2026, 23:11 UTC

1 13505U 77121BC  26257.96610741  .00000865  00000-0  12360-2 0  9991
2 13505  65.3540 239.9751 0010370  48.3039 342.7650 13.61502420704319

Sigue COSMOS 970 DEB en tiempo real con AllMySat

Download on the App Store